Overview Statistics Trail Chart Weather Telemetry Raw packets
 

This is the latest recevied weather packets stored in our database for station/object VE8SKI. If no packets are shown the sender has not sent any weather packets the latest 10 day(s).

<< 55 56 57 58 59 60 61 >>
Time Temp. Humidity Pressure Rain* Wind** Luminosity Snow
1777735906 3.89° C 65% 1014.5 hPa 0 mm 1.34 m/s, 143° - -
1777735607 3.89° C 65% 1014.6 hPa 0 mm 2.68 m/s, 73° - -
1777735304 3.89° C 65% 1014.7 hPa 0 mm 2.24 m/s, 114° - -
1777735006 3.89° C 66% 1014.8 hPa 0 mm 1.79 m/s, 93° - -
1777734705 3.89° C 65% 1014.9 hPa 0 mm 2.24 m/s, 104° - -
1777734406 3.89° C 65% 1015.1 hPa 0 mm 1.79 m/s, 177° - -
1777734106 3.89° C 66% 1015.2 hPa 0 mm 1.34 m/s, 120° - -
1777733806 3.89° C 66% 1015.2 hPa 0 mm 1.34 m/s, 89° - -
1777733504 3.89° C 66% 1015.4 hPa 0 mm 1.79 m/s, 58° - -
1777733204 3.89° C 66% 1015.6 hPa 0 mm 1.79 m/s, 111° - -
1777732905 3.89° C 67% 1015.8 hPa 0 mm 1.34 m/s, 135° - -
1777732605 3.89° C 65% 1015.8 hPa 0 mm 1.34 m/s, 84° - -
1777732306 3.89° C 67% 1015.9 hPa 0 mm 1.34 m/s, 139° - -
1777732006 3.33° C 69% 1016.1 hPa 0 mm 0.89 m/s, 45° - -
1777731704 2.78° C 72% 1016.3 hPa 0 mm 0.45 m/s, 70° - -
1777730805 2.78° C 72% 1016.5 hPa 0 mm 0.89 m/s, 39° - -
1777730205 2.78° C 72% 1016.7 hPa 0 mm 0 m/s - -
1777729903 2.78° C 71% 1016.8 hPa 0 mm 1.34 m/s, 86° - -
1777729603 2.78° C 71% 1017 hPa 0 mm 0.45 m/s, 90° - -
1777729303 3.33° C 70% 1017.1 hPa 0 mm 0.89 m/s, 49° - -
1777729003 3.89° C 70% 1017.3 hPa 0 mm 0 m/s - -
1777728704 3.33° C 70% 1017.4 hPa 0 mm 0.45 m/s, 105° - -
1777728404 3.33° C 72% 1017.5 hPa 0 mm 0.45 m/s, 90° - -
1777728101 3.33° C 73% 1017.5 hPa 0 mm 0.89 m/s, 104° - -
1777727802 3.33° C 79% 1017.6 hPa 0 mm 0 m/s - -

* Rain latest hour (hover to see other rain measurements)
** Current wind speed in m/s (hover to see current wind gust speed)